Temperature
15 15 15 15 15 15 15 15 15 15 15 15 15 15 15 15 15 15 15 15 15 15 15 15 15 15 15 15 15 15 15 15 15 15 15 15 15 15 15 15 15 15 15
15 15 15 15 15 15 15 15 15 15 15 15 15 15 15 15 15 15 15 15 15 15 15 15 15 15 15 15 15 15 15 15 15 15 15 15 15 15 15 15 15 15 15
14 14 14 14 15 15 15 15 15 15 15 15 15 15 15 15 14 14 15 15 15 15 15 15 15 15 15 15 15 15 15 15 15 15 15 15 15 15 15 15 15 15 15
14 14 14 14 14 14 14 14 14 15 15 15 14 14 14 14 14 14 14 14 14 14 14 15 14 14 15 15 14 14 14 14 14 14 14 14 14 14 14 14 14 14 14
14 14 14 14 14 14 14 14 14 14 14 14 14 14 14 14 14 14 14 14 14 14 14 14 14 14 14 14 14 14 14 14 14 14 14 14 14 14 14 14 14 14 14
14 14 14 14 14 14 14 14 14 14 14 14 14 14 14 13 13 14 13 13 13 14 14 14 14 14 14 14 14 14 14 14 14 14 14 14 14 14 14 14 14 14 14
13 13 13 14 14 14 14 13 14 14 14 14 14 13 13 13 13 13 13 13 13 13 13 13 14 14 14 14 14 14 14 13 13 13 13 14 14 14 13 13 13 13 13
13 13 13 13 13 13 13 13 13 13 13 13 13 13 13 13 13 13 13 13 13 13 13 13 13 13 13 13 13 13 13 13 13 13 13 13 13 13 13 13 13 13 13
13 13 13 13 13 13 13 13 13 13 13 13 13 13 13 12 12 12 12 12 12 12 13 13 13 13 13 13 13 13 13 13 13 13 13 13 13 13 13 13 13 13 13
13 13 12 12 12 12 12 13 13 12 13 13 12 12 12 12 12 12 12 12 12 12 12 12 12 12 12 12 12 13 13 13 13 13 13 13 13 13 12 12 12 12 12
13 12 12 12 12 12 12 12 12 12 12 12 12 12 12 12 12 12 11 11 12 12 12 12 12 12 12 12 12 12 12 12 12 12 12 12 12 12 12 12 12 12 12
12 12 12 12 12 12 12 12 12 12 12 12 12 12 12 11 12 11 11 11 11 11 11 11 11 11 11 11 12 12 12 12 12 12 12 12 12 12 12 11 11 11 11
12 12 12 12 12 12 11 11 11 11 11 11 11 11 11 11 11 11 11 11 11 11 11 11 11 11 11 11 11 11 11 11 11 11 11 11 11 11 11 11 11 11 11
12 12 12 11 11 11 11 11 11 11 11 11 11 11 11 11 11 11 11 11 10 10 10 11 11 11 11 11 11 11 11 11 11 11 11 11 11 11 11 11 11 11 11
12 11 11 11 11 11 11 11 11 11 11 11 11 11 11 11 11 11 10 10 10 10 10 10 10 10 10 11 11 10 11 11 11 11 11 11 11 11 11 11 11 11 11
11 11 11 11 11 11 10 10 10 10 10 10 10 10 10 10 10 10 10 10 10 10 10 10 10 10 10 10 10 10 10 10 11 11 11 11 11 11 11 11 11 11 11
11 11 11 11 10 10 10 10 10 10 10 10 10 10 10 10 10 10 10 10 10 10 10 10 10 10 10 10 10 10 10 10 10 10 10 11 11 11 11 10 10 11 10
11 11 10 10 10 10 10 10 10 10 10 10 10 10 10 10 10 9 9 9 9 9 9 9 10 9 10 10 10 10 10 10 10 10 10 10 10 10 10 10 10 10 10
10 10 10 10 10 10 10 10 10 10 10 10 10 9 9 9 9 9 9 9 9 9 9 9 9 9 9 9 9 9 10 10 10 10 10 10 10 10 10 10 10 10 10
10 10 10 10 10 10 9 9 9 9 9 9 9 9 9 9 9 9 9 9 9 9 9 9 9 9 9 9 9 9 9 9 9 10 10 10 10 10 10 10 10 9 9
10 10 10 10 10 9 9 9 9 9 9 9 9 9 9 9 9 9 9 9 9 9 9 9 8 8 9 9 9 9 9 9 9 9 9 9 9 9 9 9 9 9 9
10 10 10 9 9 9 9 9 9 9 9 9 9 9 9 9 8 8 8 8 8 8 8 8 8 8 8 8 8 8 8 8 8 9 9 9 9 9 9 9 9 9 9
10 9 9 9 9 9 9 9 9 9 8 8 8 8 8 8 8 8 8 8 8 8 8 8 8 8 8 8 8 8 8 8 8 8 8 9 9 9 9 9 9 9 9
9 9 9 9 9 9 8 8 8 8 8 8 8 8 8 8 8 7 7 7 7 7 7 7 7 7 7 7 7 7 7 7 7 8 8 8 8 8 8 8 8 8 8
9 9 9 9 9 8 8 8 8 8 8 8 8 7 7 7 7 7 7 7 7 7 7 7 7 7 7 7 7 7 7 7 7 7 7 7 8 8 8 8 8 8 8
9 9 8 8 8 8 8 8 8 8 7 7 7 7 7 7 7 7 6 6 7 7 6 6 6 6 6 6 6 6 6 6 6 7 7 7 7 7 7 7 7 7 7
Wind_Speed
3 3 4 5 5 5 5 4 4 5 6 6 7 7 6 7 7 7 7 10 9 8 7 7 6 5 5 5 5 5 6 6 6 6 6 5 5 5 5 5 5 4 5
3 3 3 4 4 5 4 4 4 4 4 5 5 6 6 6 7 7 7 8 9 9 8 7 6 5 5 5 5 5 5 5 5 5 5 5 5 5 5 5 4 4 4
4 3 3 3 3 4 5 5 5 5 4 4 5 5 5 6 7 7 7 7 8 9 9 8 7 6 4 4 4 4 5 5 5 4 4 5 5 5 5 5 5 5 5
4 4 3 2 3 5 4 3 3 4 4 4 4 4 5 5 7 7 7 7 7 7 8 9 7 6 5 4 4 4 5 5 4 4 4 4 4 5 5 5 5 5 5
4 4 3 2 3 3 3 3 3 3 3 4 4 4 4 4 5 6 6 7 8 8 8 9 9 7 5 4 4 4 4 4 4 4 4 4 4 4 4 4 4 4 4
4 4 3 3 3 3 3 2 3 3 3 3 4 5 4 4 4 5 5 6 7 8 8 8 8 8 8 6 5 4 3 4 4 4 4 4 4 4 4 4 3 3 3
4 4 3 2 2 2 2 2 3 3 2 2 3 3 4 4 4 4 5 5 6 7 8 8 7 7 7 7 6 4 3 3 3 4 4 3 3 3 3 3 2 2 3
3 3 3 2 2 2 3 2 2 2 1 2 2 2 2 3 4 4 4 4 5 6 7 7 7 7 7 7 7 7 5 4 3 2 2 2 2 2 2 1 1 2 3
3 3 3 3 2 2 2 1 2 2 1 1 2 2 2 1 1 3 4 4 4 4 5 6 7 7 6 6 6 7 7 5 3 2 1 1 1 1 1 1 1 1 1
3 3 3 3 2 1 1 1 2 1 2 1 1 2 1 2 2 1 3 3 4 4 4 5 5 6 6 6 6 6 6 5 4 3 1 1 1 1 1 1 1 0 0
3 3 3 3 2 1 1 1 2 2 1 2 1 1 2 2 2 2 1 3 3 3 3 4 4 4 6 5 5 6 6 6 5 4 3 2 1 1 0 1 1 0 0
2 2 2 2 1 1 1 1 1 1 1 1 1 1 2 2 1 2 1 1 2 3 3 3 3 4 4 5 4 5 5 5 5 4 4 3 3 2 1 1 1 1 1
0 1 1 1 1 1 1 2 2 1 1 1 1 1 1 1 2 2 2 1 1 2 2 2 2 3 3 4 4 4 4 4 4 4 4 4 4 3 2 1 1 2 1
2 1 1 1 1 2 2 2 2 1 1 1 1 1 1 1 1 2 3 2 0 1 2 3 2 2 2 3 3 4 4 4 4 4 4 4 4 3 2 2 2 2 2
1 1 1 1 2 2 2 2 2 1 1 1 1 1 0 0 1 1 2 3 3 1 3 3 2 2 3 3 3 3 3 4 4 4 4 3 2 1 1 1 2 2 1
1 1 1 1 2 2 2 2 2 1 2 1 0 1 1 0 0 0 1 1 2 2 2 2 3 3 2 3 3 3 3 4 4 4 3 3 1 1 1 2 2 2 1
2 2 2 1 2 2 2 2 1 1 1 1 1 1 1 1 1 1 0 0 1 1 2 3 2 2 2 2 3 3 2 2 3 3 2 1 1 0 1 2 2 1 0
2 2 2 2 1 1 1 2 1 1 1 0 0 0 0 0 0 0 0 0 1 2 2 3 2 2 2 2 1 1 2 2 2 2 2 1 0 0 1 1 1 0 1
2 2 2 2 2 2 1 1 1 1 1 1 1 1 1 1 1 1 0 1 1 1 1 2 2 2 1 1 1 1 2 2 2 2 2 1 1 0 1 1 1 0 1
3 3 2 2 2 2 2 2 1 1 1 1 1 1 2 2 3 2 1 1 1 1 0 1 1 1 1 1 0 0 1 2 1 1 2 1 1 0 1 2 1 1 1
3 3 2 1 1 2 2 2 2 2 1 1 1 1 2 2 2 2 2 2 1 1 0 1 1 1 1 0 1 1 1 1 1 1 1 1 1 0 1 2 2 3 2
2 2 2 2 2 2 2 3 3 2 2 1 1 2 2 2 2 3 3 3 2 2 2 2 2 2 3 2 1 1 1 1 1 1 0 1 0 0 2 2 3 3 2
2 2 2 2 2 3 3 3 4 3 3 2 1 1 1 2 2 2 3 2 2 3 3 3 3 3 3 3 2 2 2 2 2 1 1 1 0 1 2 3 3 3 3
3 3 3 3 2 3 3 3 3 3 2 2 2 2 2 2 2 1 1 2 2 3 3 2 3 4 3 4 5 3 3 1 1 1 1 2 1 1 2 3 3 4 3
2 2 2 2 2 3 4 3 3 2 2 1 2 2 2 2 3 1 1 1 3 4 4 4 3 3 2 2 3 3 2 1 1 1 1 2 1 1 1 1 2 2 3
3 2 2 2 3 3 4 3 3 2 2 2 2 2 3 3 3 2 2 2 3 4 2 2 2 2 1 1 3 3 3 2 1 2 1 1 1 0 1 1 1 2 2
Wind_Direction
50 46 41 42 42 50 59 57 60 63 60 55 55 57 52 49 44 41 35 43 45 47 53 58 72 85 92 99 109 107 104 99 93 84 79 76 75 74 72 71 81 87 89
74 58 48 46 43 47 63 74 75 71 62 59 51 51 47 46 45 41 35 36 40 42 44 49 57 73 88 93 94 101 99 100 94 86 81 76 73 71 72 72 79 88 85
82 74 60 48 40 52 67 78 76 74 65 58 47 43 45 42 45 42 37 34 33 35 38 41 48 55 65 86 98 104 101 97 93 89 80 75 73 71 69 67 72 79 80
97 87 71 51 52 63 68 74 72 72 63 59 52 39 42 42 41 42 40 35 31 28 30 31 37 45 47 69 89 100 106 102 98 91 84 79 75 73 69 64 64 72 75
94 93 80 68 70 70 64 76 71 85 84 68 60 48 40 38 35 39 38 35 33 31 27 23 26 32 38 50 74 80 91 100 99 94 88 84 80 76 71 67 65 67 70
91 89 79 68 73 73 60 67 81 71 89 87 72 54 38 36 37 36 33 35 35 32 29 26 23 24 32 41 50 63 79 95 100 94 86 84 80 74 67 60 62 65 67
92 93 83 73 69 76 79 86 92 85 69 67 73 47 29 33 37 31 32 34 31 27 30 28 25 25 23 31 35 41 50 71 80 81 75 72 70 67 61 60 58 60 59
87 98 95 92 80 78 69 77 87 87 53 46 91 88 27 5 16 22 21 29 23 24 27 25 26 26 25 26 32 32 32 43 53 69 67 71 59 51 45 46 46 51 46
73 91 98 95 89 100 121 118 99 103 117 35 54 117 132 217 332 356 12 18 14 18 15 20 25 22 24 28 25 25 28 28 25 36 43 55 52 57 38 12 37 41 29
63 80 95 96 104 113 130 145 107 108 128 134 40 48 105 150 149 337 345 358 5 11 6 14 16 20 26 27 24 25 24 21 21 21 22 25 12 83 60 45 53 39 10
47 61 83 88 102 122 130 102 96 86 107 140 148 119 78 66 102 147 277 327 348 350 358 1 7 15 22 23 21 25 26 23 20 20 21 15 3 348 327 44 57 9 247
21 35 59 68 90 113 124 121 108 105 92 113 124 141 158 155 171 153 188 278 316 321 333 353 2 0 15 18 13 17 21 20 21 21 18 11 359 340 309 328 326 298 270
313 298 56 69 70 91 111 105 93 89 99 119 138 178 192 184 167 159 155 190 279 307 324 332 338 349 6 13 5 9 12 8 9 11 7 357 351 348 340 328 297 292 269
218 212 164 117 97 102 102 100 94 78 69 93 104 137 172 192 169 164 165 160 260 319 316 295 322 332 347 358 350 357 356 346 348 348 345 347 347 353 2 351 321 305 284
184 142 128 108 95 101 101 104 101 82 66 64 87 112 133 238 176 184 168 169 168 226 272 272 286 308 323 328 329 343 334 325 330 329 323 324 330 350 351 339 331 328 343
143 136 120 111 100 97 103 98 103 85 75 42 63 85 55 5 38 113 177 183 181 191 239 258 262 287 307 323 324 328 312 311 317 318 313 302 284 276 306 304 320 341 25
157 159 162 136 113 108 107 103 99 94 89 46 30 80 15 35 50 21 61 183 193 176 227 277 282 298 306 313 333 338 329 322 314 307 311 320 324 278 259 276 307 345 304
171 166 151 138 136 129 125 127 139 126 147 163 317 86 324 358 24 6 48 313 245 218 200 246 286 299 289 287 326 342 343 337 323 333 351 4 9 198 211 216 265 313 273
168 149 145 154 166 167 160 167 175 185 201 213 212 206 237 193 247 273 265 295 276 270 210 209 263 282 279 298 5 356 4 354 338 346 352 314 276 186 200 197 222 271 237
169 169 175 177 182 183 181 181 172 179 198 224 226 222 226 219 224 222 229 245 265 282 278 211 261 277 265 281 135 215 347 359 344 351 344 321 287 268 221 232 235 228 214
174 171 169 175 178 179 196 176 173 170 182 213 283 274 259 252 245 240 245 226 211 231 256 251 271 286 285 230 220 204 224 335 327 351 3 341 346 358 267 250 238 225 215
162 156 174 184 190 215 222 196 178 177 182 190 249 291 291 288 288 285 283 248 216 213 226 220 239 251 260 234 198 196 168 82 296 311 48 309 43 270 268 256 235 226 223
168 178 200 193 219 240 228 203 191 163 168 187 208 252 300 313 315 298 299 297 282 278 255 211 221 239 238 222 187 194 197 189 225 252 131 255 257 253 271 268 247 229 234
184 199 211 211 221 251 247 225 195 154 157 188 214 217 232 282 287 252 287 317 302 296 285 252 228 239 237 214 199 195 191 192 283 276 164 205 238 258 297 286 265 243 247
190 207 213 211 222 255 247 231 189 157 171 220 250 247 237 247 281 261 187 274 296 297 291 281 280 274 270 212 161 124 115 106 277 268 185 185 217 292 309 309 306 279 256
202 203 213 224 230 249 252 236 195 165 188 230 259 269 269 262 273 251 200 221 265 277 299 321 333 346 352 186 164 161 171 175 205 251 221 182 173 99 325 321 332 315 285
Height
1531 1530 1530 1530 1530 1530 1530 1530 1531 1531 1531 1532 1532 1532 1532 1532 1532 1532 1532 1532 1532 1532 1532 1532 1532 1532 1532 1532 1532 1533 1534 1534 1535 1536 1536 1537 1537 1537 1537 1537 1538 1538 1539
1531 1531 1531 1531 1531 1530 1530 1531 1531 1531 1532 1532 1532 1532 1532 1532 1532 1532 1532 1532 1532 1532 1532 1532 1532 1532 1532 1532 1532 1533 1534 1534 1535 1536 1536 1536 1537 1537 1537 1537 1537 1538 1538
1531 1531 1531 1531 1531 1531 1531 1531 1531 1532 1532 1532 1532 1532 1532 1533 1533 1532 1532 1532 1532 1532 1532 1532 1532 1532 1532 1532 1533 1533 1533 1534 1535 1535 1536 1536 1537 1537 1537 1537 1537 1538 1538
1532 1531 1531 1531 1531 1531 1531 1531 1531 1532 1532 1532 1532 1532 1533 1533 1533 1533 1533 1533 1532 1532 1532 1532 1532 1532 1532 1532 1533 1533 1534 1534 1535 1535 1536 1536 1536 1537 1537 1537 1537 1537 1538
1532 1531 1531 1531 1531 1531 1531 1531 1531 1532 1532 1532 1532 1532 1533 1533 1533 1533 1533 1533 1533 1532 1532 1532 1532 1532 1532 1532 1532 1533 1533 1533 1534 1535 1535 1536 1536 1536 1537 1537 1537 1537 1538
1531 1531 1531 1531 1531 1531 1531 1531 1531 1532 1532 1532 1532 1532 1533 1533 1533 1533 1533 1533 1533 1532 1532 1532 1532 1532 1532 1532 1532 1532 1533 1533 1534 1534 1535 1535 1536 1536 1536 1536 1537 1537 1537
1531 1531 1531 1531 1531 1530 1531 1531 1531 1531 1531 1532 1532 1532 1533 1533 1533 1533 1533 1533 1533 1532 1532 1532 1531 1531 1531 1531 1532 1532 1532 1533 1533 1534 1534 1534 1535 1535 1535 1535 1536 1536 1536
1530 1530 1530 1530 1530 1530 1530 1530 1530 1531 1531 1531 1532 1532 1532 1534 1533 1533 1533 1533 1532 1532 1532 1531 1531 1531 1531 1531 1531 1531 1532 1532 1532 1532 1533 1533 1533 1533 1534 1534 1534 1535 1535
1529 1529 1529 1529 1529 1529 1529 1529 1530 1530 1530 1531 1531 1532 1532 1532 1532 1533 1532 1532 1532 1532 1531 1531 1531 1531 1531 1531 1530 1530 1530 1531 1531 1531 1531 1532 1532 1532 1532 1532 1533 1533 1533
1528 1528 1528 1528 1528 1528 1528 1529 1529 1529 1530 1530 1530 1531 1532 1531 1532 1531 1532 1532 1531 1531 1530 1530 1530 1530 1530 1530 1529 1529 1529 1529 1529 1530 1530 1530 1530 1530 1530 1530 1531 1531 1531
1527 1527 1527 1527 1527 1527 1527 1528 1528 1528 1529 1529 1529 1530 1530 1530 1530 1530 1530 1530 1530 1530 1529 1529 1529 1529 1529 1528 1528 1528 1528 1528 1528 1528 1528 1528 1528 1528 1528 1528 1529 1529 1529
1526 1526 1526 1526 1526 1526 1527 1527 1527 1527 1527 1528 1528 1528 1529 1529 1529 1529 1528 1528 1528 1528 1528 1528 1528 1528 1527 1527 1527 1527 1526 1526 1526 1526 1526 1526 1526 1526 1526 1526 1526 1527 1526
1525 1525 1525 1525 1525 1525 1525 1526 1526 1526 1526 1527 1527 1527 1527 1527 1528 1528 1527 1527 1526 1526 1526 1526 1526 1526 1526 1525 1525 1525 1524 1524 1524 1524 1524 1524 1524 1524 1524 1524 1524 1524 1523
1524 1524 1524 1524 1524 1524 1524 1524 1524 1525 1525 1525 1525 1525 1525 1526 1526 1526 1526 1525 1524 1524 1524 1524 1524 1524 1524 1523 1523 1522 1522 1522 1522 1522 1522 1522 1522 1521 1522 1522 1521 1521 1520
1523 1523 1523 1523 1523 1523 1523 1523 1523 1523 1523 1523 1523 1524 1524 1524 1524 1524 1524 1524 1524 1523 1522 1522 1522 1522 1521 1521 1520 1520 1520 1520 1520 1519 1519 1519 1519 1519 1519 1519 1519 1518 1517
1522 1522 1522 1522 1522 1522 1522 1522 1521 1522 1522 1522 1521 1521 1521 1522 1522 1522 1522 1522 1522 1522 1520 1520 1519 1519 1519 1518 1517 1517 1517 1517 1517 1517 1517 1517 1517 1517 1517 1517 1516 1516 1514
1521 1521 1521 1521 1521 1521 1520 1520 1520 1520 1520 1520 1520 1519 1519 1519 1519 1519 1519 1519 1519 1519 1518 1517 1517 1516 1516 1515 1515 1514 1514 1514 1515 1515 1515 1515 1514 1514 1515 1515 1515 1514 1513
1519 1519 1519 1519 1519 1519 1519 1519 1519 1519 1518 1518 1518 1517 1517 1517 1517 1517 1517 1517 1517 1516 1516 1515 1514 1513 1513 1512 1512 1512 1512 1512 1512 1513 1513 1512 1512 1513 1513 1513 1513 1513 1513
1517 1518 1518 1518 1517 1517 1517 1517 1517 1517 1517 1516 1516 1516 1515 1515 1515 1515 1515 1515 1514 1514 1513 1512 1511 1510 1510 1510 1510 1510 1510 1510 1510 1511 1511 1511 1511 1511 1511 1511 1512 1512 1512
1515 1515 1516 1516 1515 1515 1515 1515 1515 1515 1515 1515 1514 1514 1513 1513 1513 1512 1512 1512 1512 1511 1510 1509 1508 1508 1507 1507 1507 1507 1507 1508 1508 1508 1509 1509 1509 1509 1509 1509 1510 1510 1511
1513 1513 1513 1513 1513 1513 1513 1513 1513 1513 1512 1512 1512 1512 1511 1511 1510 1510 1509 1509 1509 1508 1507 1506 1506 1505 1505 1505 1505 1505 1505 1505 1505 1506 1506 1506 1506 1506 1507 1507 1508 1508 1509
1510 1510 1510 1510 1510 1510 1510 1510 1510 1510 1510 1509 1509 1509 1509 1508 1508 1507 1507 1506 1506 1505 1504 1504 1503 1503 1502 1502 1503 1503 1503 1502 1503 1504 1503 1504 1504 1504 1505 1505 1505 1506 1506
1507 1507 1507 1507 1507 1507 1507 1507 1507 1507 1507 1506 1506 1506 1506 1505 1505 1504 1504 1503 1503 1502 1502 1501 1501 1500 1500 1500 1500 1500 1500 1500 1500 1501 1501 1500 1502 1501 1502 1502 1503 1503 1503
1504 1504 1504 1503 1503 1503 1504 1504 1504 1504 1504 1503 1503 1503 1503 1502 1502 1501 1501 1500 1500 1499 1499 1498 1498 1497 1497 1497 1497 1498 1498 1498 1499 1499 1499 1498 1498 1499 1499 1499 1500 1500 1501
1500 1500 1500 1500 1500 1500 1500 1501 1501 1500 1500 1500 1500 1500 1499 1499 1499 1498 1498 1497 1496 1496 1496 1495 1495 1495 1494 1494 1494 1494 1495 1495 1495 1496 1496 1496 1495 1496 1496 1496 1497 1497 1498
1497 1497 1497 1497 1497 1497 1497 1497 1497 1497 1497 1497 1497 1497 1496 1496 1495 1495 1494 1494 1493 1493 1493 1492 1492 1492 1491 1491 1491 1491 1492 1492 1492 1493 1493 1494 1493 1493 1493 1494 1494 1495 1495